Terminal Aerodrome Forecast
Issued by NWS Blacksburg, VA

Home | Current Version | Previous Version | Text Only | Print | Product List | Glossary On
Versions: 1 2 3 4 5 6 7 8 9 10 11 12 13 14 15 16 17 18 19 20 21 22 23 24 25 26 27 28 29 30 31 32 33 34 35 36 37
000
FTUS41 KRNK 262342
TAFROA
TAF
KROA 262342Z 2700/2724 31012G22KT P6SM -SHRA BKN025 OVC045
      TEMPO 2700/2702 5SM -SHRA
     FM270400 31013G23KT P6SM -SN SCT025 BKN035
     FM271300 32015G25KT P6SM SCT035=

USA.gov is the U.S. government's official web portal to all federal, state and local government web resources and services.